Starlink 4493

operational
NORAD ID: 53533 Int'l Des: 2022-101 Owner: SPXS Country: US Constellation: starlink
LEOCIRCULAR

Über Starlink 4493

Beschreibung wird geladen...

Live-Position

3D-Globus wird geladen...

Nächste Überflüge

Höhenverlauf

Altitude vs Time

uPlot chart will show altitude changes over time

Zweizeiliger Elementsatz

1 53533U 22101G 25304.29860858 -.00000263 00000-0 15671-5 0 9992
2 53533 53.2175 294.9735 0001572 106.0150 254.1016 15.08849950176632
Epoch: 31. Okt. 2025 • Age: 5 hours

Aktueller Status

Höhe 540.5 km
Geschwindigkeit 7.60 km/s
Subsatellitenpunkt 29.95°N, 139.87°W
Startdatum 19. Aug. 2022
Alter 3.1 years
Typ internet

Technische Details

Klassifizierung Payload
Masse 300.00 kg
Trockenmasse 290.00 kg
Gesamtmasse 300.00 kg
Länge 0.20 m
Durchmesser 2.80 m
Spannweite 9.00 m
Form Box + pan
Hersteller SPXS
Bus-Typ Starlink
Phasenstatus In Orbit
Besitzer/Staat SPXS/US

Große Konstellationen

Loading constellations...